Year,Month,Day,Hour,Minute,Value (Times are PST for insolation in W/m^2)
2007,10,03,00,00,0.00
2007,10,03,00,01,0.00
2007,10,03,00,02,0.00
2007,10,03,00,03,0.00
2007,10,03,00,04,0.00
2007,10,03,00,05,0.00
2007,10,03,00,06,0.00
2007,10,03,00,07,0.00
2007,10,03,00,08,0.00
2007,10,03,00,09,0.00
2007,10,03,00,10,0.00
2007,10,03,00,11,0.00
2007,10,03,00,12,0.00
2007,10,03,00,13,0.00
2007,10,03,00,14,0.00
2007,10,03,00,15,0.00
2007,10,03,00,16,0.00
2007,10,03,00,17,0.00
2007,10,03,00,18,0.00
2007,10,03,00,19,0.00
2007,10,03,00,20,0.00
2007,10,03,00,21,0.00
2007,10,03,00,22,0.00
2007,10,03,00,23,0.00
2007,10,03,00,24,0.00
2007,10,03,00,25,0.00
2007,10,03,00,26,0.00
2007,10,03,00,27,0.00
2007,10,03,00,28,0.00
2007,10,03,00,29,0.00
2007,10,03,00,30,0.00
2007,10,03,00,31,0.00
2007,10,03,00,32,0.00
2007,10,03,00,33,0.00
2007,10,03,00,34,0.00
2007,10,03,00,35,0.00
2007,10,03,00,36,0.00
2007,10,03,00,37,0.00
2007,10,03,00,38,0.00
2007,10,03,00,39,0.00
2007,10,03,00,40,0.00
2007,10,03,00,41,0.00
2007,10,03,00,42,0.00
2007,10,03,00,43,0.00
2007,10,03,00,44,0.00
2007,10,03,00,45,0.00
2007,10,03,00,46,0.00
2007,10,03,00,47,0.00
2007,10,03,00,48,0.00
2007,10,03,00,49,0.00
2007,10,03,00,50,0.00
2007,10,03,00,51,0.00
2007,10,03,00,52,0.00
2007,10,03,00,53,0.00
2007,10,03,00,54,0.00
2007,10,03,00,55,0.00
2007,10,03,00,56,0.00
2007,10,03,00,57,0.00
2007,10,03,00,58,0.00
2007,10,03,00,59,0.00
2007,10,03,01,00,0.00
2007,10,03,01,01,0.00
2007,10,03,01,02,0.00
2007,10,03,01,03,0.00
2007,10,03,01,04,0.00
2007,10,03,01,05,0.00
2007,10,03,01,06,0.00
2007,10,03,01,07,0.00
2007,10,03,01,08,0.00
2007,10,03,01,09,0.00
2007,10,03,01,10,0.00
2007,10,03,01,11,0.00
2007,10,03,01,12,0.00
2007,10,03,01,13,0.00
2007,10,03,01,14,0.00
2007,10,03,01,15,0.00
2007,10,03,01,16,0.00
2007,10,03,01,17,0.00
2007,10,03,01,18,0.00
2007,10,03,01,19,0.00
2007,10,03,01,20,0.00
2007,10,03,01,21,0.00
2007,10,03,01,22,0.00
2007,10,03,01,23,0.00
2007,10,03,01,24,0.00
2007,10,03,01,25,0.00
2007,10,03,01,26,0.00
2007,10,03,01,27,0.00
2007,10,03,01,28,0.00
2007,10,03,01,29,0.00
2007,10,03,01,30,0.00
2007,10,03,01,31,0.00
2007,10,03,01,32,0.00
2007,10,03,01,33,0.00
2007,10,03,01,34,0.00
2007,10,03,01,35,0.00
2007,10,03,01,36,0.00
2007,10,03,01,37,0.00
2007,10,03,01,38,0.00
2007,10,03,01,39,0.00
2007,10,03,01,40,0.00
2007,10,03,01,41,0.00
2007,10,03,01,42,0.00
2007,10,03,01,43,0.00
2007,10,03,01,44,0.00
2007,10,03,01,45,0.00
2007,10,03,01,46,0.00
2007,10,03,01,47,0.00
2007,10,03,01,48,0.00
2007,10,03,01,49,0.00
2007,10,03,01,50,0.00
2007,10,03,01,51,0.00
2007,10,03,01,52,0.00
2007,10,03,01,53,0.00
2007,10,03,01,54,0.00
2007,10,03,01,55,0.00
2007,10,03,01,56,0.00
2007,10,03,01,57,0.00
2007,10,03,01,58,0.00
2007,10,03,01,59,0.00
2007,10,03,02,00,0.00
2007,10,03,02,01,0.00
2007,10,03,02,02,0.00
2007,10,03,02,03,0.00
2007,10,03,02,04,0.00
2007,10,03,02,05,0.00
2007,10,03,02,06,0.00
2007,10,03,02,07,0.00
2007,10,03,02,08,0.00
2007,10,03,02,09,0.00
2007,10,03,02,10,0.00
2007,10,03,02,11,0.00
2007,10,03,02,12,0.00
2007,10,03,02,13,0.00
2007,10,03,02,14,0.00
2007,10,03,02,15,0.00
2007,10,03,02,16,0.00
2007,10,03,02,17,0.00
2007,10,03,02,18,0.00
2007,10,03,02,19,0.00
2007,10,03,02,20,0.00
2007,10,03,02,21,0.00
2007,10,03,02,22,0.00
2007,10,03,02,23,0.00
2007,10,03,02,24,0.00
2007,10,03,02,25,0.00
2007,10,03,02,26,0.00
2007,10,03,02,27,0.00
2007,10,03,02,28,0.00
2007,10,03,02,29,0.00
2007,10,03,02,30,0.00
2007,10,03,02,31,0.00
2007,10,03,02,32,0.00
2007,10,03,02,33,0.00
2007,10,03,02,34,0.00
2007,10,03,02,35,0.00
2007,10,03,02,36,0.00
2007,10,03,02,37,0.00
2007,10,03,02,38,0.00
2007,10,03,02,39,0.00
2007,10,03,02,40,0.00
2007,10,03,02,41,0.00
2007,10,03,02,42,0.00
2007,10,03,02,43,0.00
2007,10,03,02,44,0.00
2007,10,03,02,45,0.00
2007,10,03,02,46,0.00
2007,10,03,02,47,0.00
2007,10,03,02,48,0.00
2007,10,03,02,49,0.00
2007,10,03,02,50,0.00
2007,10,03,02,51,0.00
2007,10,03,02,52,0.00
2007,10,03,02,53,0.00
2007,10,03,02,54,0.00
2007,10,03,02,55,0.00
2007,10,03,02,56,0.00
2007,10,03,02,57,0.00
2007,10,03,02,58,0.00
2007,10,03,02,59,0.00
2007,10,03,03,00,0.00
2007,10,03,03,01,0.00
2007,10,03,03,02,0.00
2007,10,03,03,03,0.00
2007,10,03,03,04,0.00
2007,10,03,03,05,0.00
2007,10,03,03,06,0.00
2007,10,03,03,07,0.00
2007,10,03,03,08,0.00
2007,10,03,03,09,0.00
2007,10,03,03,10,0.00
2007,10,03,03,11,0.00
2007,10,03,03,12,0.00
2007,10,03,03,13,0.00
2007,10,03,03,14,0.00
2007,10,03,03,15,0.00
2007,10,03,03,16,0.00
2007,10,03,03,17,0.00
2007,10,03,03,18,0.00
2007,10,03,03,19,0.00
2007,10,03,03,20,0.00
2007,10,03,03,21,0.00
2007,10,03,03,22,0.00
2007,10,03,03,23,0.00
2007,10,03,03,24,0.00
2007,10,03,03,25,0.00
2007,10,03,03,26,0.00
2007,10,03,03,27,0.00
2007,10,03,03,28,0.00
2007,10,03,03,29,0.00
2007,10,03,03,30,0.00
2007,10,03,03,31,0.00
2007,10,03,03,32,0.00
2007,10,03,03,33,0.00
2007,10,03,03,34,0.00
2007,10,03,03,35,0.00
2007,10,03,03,36,0.00
2007,10,03,03,37,0.00
2007,10,03,03,38,0.00
2007,10,03,03,39,0.00
2007,10,03,03,40,0.00
2007,10,03,03,41,0.00
2007,10,03,03,42,0.00
2007,10,03,03,43,0.00
2007,10,03,03,44,0.00
2007,10,03,03,45,0.00
2007,10,03,03,46,0.00
2007,10,03,03,47,0.00
2007,10,03,03,48,0.00
2007,10,03,03,49,0.00
2007,10,03,03,50,0.00
2007,10,03,03,51,0.00
2007,10,03,03,52,0.00
2007,10,03,03,53,0.00
2007,10,03,03,54,0.00
2007,10,03,03,55,0.00
2007,10,03,03,56,0.00
2007,10,03,03,57,0.00
2007,10,03,03,58,0.00
2007,10,03,03,59,0.00
2007,10,03,04,00,0.00
2007,10,03,04,01,0.00
2007,10,03,04,02,0.00
2007,10,03,04,03,0.00
2007,10,03,04,04,0.00
2007,10,03,04,05,0.00
2007,10,03,04,06,0.00
2007,10,03,04,07,0.00
2007,10,03,04,08,0.00
2007,10,03,04,09,0.00
2007,10,03,04,10,0.00
2007,10,03,04,11,0.00
2007,10,03,04,12,0.00
2007,10,03,04,13,0.00
2007,10,03,04,14,0.00
2007,10,03,04,15,0.00
2007,10,03,04,16,0.00
2007,10,03,04,17,0.00
2007,10,03,04,18,0.00
2007,10,03,04,19,0.00
2007,10,03,04,20,0.00
2007,10,03,04,21,0.00
2007,10,03,04,22,0.00
2007,10,03,04,23,0.00
2007,10,03,04,24,0.00
2007,10,03,04,25,0.00
2007,10,03,04,26,0.00
2007,10,03,04,27,0.00
2007,10,03,04,28,0.00
2007,10,03,04,29,0.00
2007,10,03,04,30,0.00
2007,10,03,04,31,0.00
2007,10,03,04,32,0.00
2007,10,03,04,33,0.00
2007,10,03,04,34,0.00
2007,10,03,04,35,0.00
2007,10,03,04,36,0.00
2007,10,03,04,37,0.00
2007,10,03,04,38,0.00
2007,10,03,04,39,0.00
2007,10,03,04,40,0.00
2007,10,03,04,41,0.00
2007,10,03,04,42,0.00
2007,10,03,04,43,0.00
2007,10,03,04,44,0.00
2007,10,03,04,45,0.00
2007,10,03,04,46,0.00
2007,10,03,04,47,0.00
2007,10,03,04,48,0.00
2007,10,03,04,49,0.00
2007,10,03,04,50,0.00
2007,10,03,04,51,0.00
2007,10,03,04,52,0.00
2007,10,03,04,53,0.00
2007,10,03,04,54,0.00
2007,10,03,04,55,0.00
2007,10,03,04,56,0.00
2007,10,03,04,57,0.00
2007,10,03,04,58,0.00
2007,10,03,04,59,0.00
2007,10,03,05,00,0.00
2007,10,03,05,01,0.00
2007,10,03,05,02,0.00
2007,10,03,05,03,0.00
2007,10,03,05,04,0.00
2007,10,03,05,05,0.00
2007,10,03,05,06,0.00
2007,10,03,05,07,0.00
2007,10,03,05,08,0.00
2007,10,03,05,09,0.00
2007,10,03,05,10,0.00
2007,10,03,05,11,0.00
2007,10,03,05,12,0.00
2007,10,03,05,13,0.00
2007,10,03,05,14,0.00
2007,10,03,05,15,0.00
2007,10,03,05,16,0.00
2007,10,03,05,17,0.00
2007,10,03,05,18,0.00
2007,10,03,05,19,0.00
2007,10,03,05,20,0.00
2007,10,03,05,21,0.00
2007,10,03,05,22,0.00
2007,10,03,05,23,0.00
2007,10,03,05,24,0.00
2007,10,03,05,25,0.00
2007,10,03,05,26,0.00
2007,10,03,05,27,0.00
2007,10,03,05,28,0.00
2007,10,03,05,29,0.00
2007,10,03,05,30,0.00
2007,10,03,05,31,0.00
2007,10,03,05,32,0.00
2007,10,03,05,33,0.00
2007,10,03,05,34,0.00
2007,10,03,05,35,0.00
2007,10,03,05,36,0.00
2007,10,03,05,37,0.00
2007,10,03,05,38,0.00
2007,10,03,05,39,0.00
2007,10,03,05,40,0.00
2007,10,03,05,41,0.00
2007,10,03,05,42,0.00
2007,10,03,05,43,0.00
2007,10,03,05,44,0.00
2007,10,03,05,45,0.00
2007,10,03,05,46,0.00
2007,10,03,05,47,0.00
2007,10,03,05,48,0.00
2007,10,03,05,49,0.00
2007,10,03,05,50,0.00
2007,10,03,05,51,0.00
2007,10,03,05,52,0.00
2007,10,03,05,53,0.00
2007,10,03,05,54,0.00
2007,10,03,05,55,0.00
2007,10,03,05,56,0.00
2007,10,03,05,57,0.00
2007,10,03,05,58,0.00
2007,10,03,05,59,0.00
2007,10,03,06,00,0.00
2007,10,03,06,01,0.00
2007,10,03,06,02,0.00
2007,10,03,06,03,0.00
2007,10,03,06,04,0.00
2007,10,03,06,05,0.00
2007,10,03,06,06,0.00
2007,10,03,06,07,0.00
2007,10,03,06,08,0.00
2007,10,03,06,09,0.00
2007,10,03,06,10,0.00
2007,10,03,06,11,0.00
2007,10,03,06,12,0.00
2007,10,03,06,13,0.00
2007,10,03,06,14,0.00
2007,10,03,06,15,0.00
2007,10,03,06,16,0.00
2007,10,03,06,17,0.00
2007,10,03,06,18,0.00
2007,10,03,06,19,0.00
2007,10,03,06,20,0.00
2007,10,03,06,21,0.00
2007,10,03,06,22,0.00
2007,10,03,06,23,0.00
2007,10,03,06,24,0.00
2007,10,03,06,25,0.00
2007,10,03,06,26,0.00
2007,10,03,06,27,0.00
2007,10,03,06,28,0.00
2007,10,03,06,29,0.00
2007,10,03,06,30,0.00
2007,10,03,06,31,0.00
2007,10,03,06,32,0.00
2007,10,03,06,33,0.00
2007,10,03,06,34,0.00
2007,10,03,06,35,0.00
2007,10,03,06,36,0.00
2007,10,03,06,37,0.00
2007,10,03,06,38,0.00
2007,10,03,06,39,0.00
2007,10,03,06,40,0.00
2007,10,03,06,41,0.00
2007,10,03,06,42,0.00
2007,10,03,06,43,0.00
2007,10,03,06,44,0.00
2007,10,03,06,45,0.00
2007,10,03,06,46,0.00
2007,10,03,06,47,0.00
2007,10,03,06,48,0.00
2007,10,03,06,49,0.00
2007,10,03,06,50,0.00
2007,10,03,06,51,0.00
2007,10,03,06,52,0.00
2007,10,03,06,53,0.00
2007,10,03,06,54,0.00
2007,10,03,06,55,0.00
2007,10,03,06,56,0.00
2007,10,03,06,57,0.00
2007,10,03,06,58,0.00
2007,10,03,06,59,0.00
2007,10,03,07,00,0.00
2007,10,03,07,01,0.00
2007,10,03,07,02,0.00
2007,10,03,07,03,0.00
2007,10,03,07,04,0.00
2007,10,03,07,05,0.00
2007,10,03,07,06,0.00
2007,10,03,07,07,0.00
2007,10,03,07,08,0.00
2007,10,03,07,09,0.00
2007,10,03,07,10,0.00
2007,10,03,07,11,0.00
2007,10,03,07,12,0.00
2007,10,03,07,13,0.00
2007,10,03,07,14,0.00
2007,10,03,07,15,0.00
2007,10,03,07,16,0.00
2007,10,03,07,17,0.00
2007,10,03,07,18,0.00
2007,10,03,07,19,0.00
2007,10,03,07,20,0.00
2007,10,03,07,21,1.90
2007,10,03,07,22,5.00
2007,10,03,07,23,5.00
2007,10,03,07,24,5.00
2007,10,03,07,25,5.00
2007,10,03,07,26,5.00
2007,10,03,07,27,5.00
2007,10,03,07,28,5.00
2007,10,03,07,29,6.40
2007,10,03,07,30,7.00
2007,10,03,07,31,9.00
2007,10,03,07,32,9.00
2007,10,03,07,33,9.00
2007,10,03,07,34,10.20
2007,10,03,07,35,11.00
2007,10,03,07,36,11.00
2007,10,03,07,37,10.90
2007,10,03,07,38,9.00
2007,10,03,07,39,9.00
2007,10,03,07,40,7.80
2007,10,03,07,41,7.00
2007,10,03,07,42,7.00
2007,10,03,07,43,7.00
2007,10,03,07,44,7.00
2007,10,03,07,45,7.00
2007,10,03,07,46,8.30
2007,10,03,07,47,9.00
2007,10,03,07,48,10.60
2007,10,03,07,49,12.40
2007,10,03,07,50,14.00
2007,10,03,07,51,15.80
2007,10,03,07,52,18.50
2007,10,03,07,53,22.30
2007,10,03,07,54,26.00
2007,10,03,07,55,28.50
2007,10,03,07,56,32.30
2007,10,03,07,57,36.00
2007,10,03,07,58,40.90
2007,10,03,07,59,45.20
2007,10,03,08,00,48.60
2007,10,03,08,01,54.00
2007,10,03,08,02,58.70
2007,10,03,08,03,73.80
2007,10,03,08,04,82.40
2007,10,03,08,05,81.20
2007,10,03,08,06,82.70
2007,10,03,08,07,86.80
2007,10,03,08,08,95.20
2007,10,03,08,09,108.80
2007,10,03,08,10,113.70
2007,10,03,08,11,116.90
2007,10,03,08,12,121.00
2007,10,03,08,13,122.00
2007,10,03,08,14,116.20
2007,10,03,08,15,117.20
2007,10,03,08,16,129.40
2007,10,03,08,17,123.70
2007,10,03,08,18,105.00
2007,10,03,08,19,105.50
2007,10,03,08,20,105.20
2007,10,03,08,21,89.70
2007,10,03,08,22,73.20
2007,10,03,08,23,73.00
2007,10,03,08,24,60.70
2007,10,03,08,25,58.50
2007,10,03,08,26,55.80
2007,10,03,08,27,54.50
2007,10,03,08,28,51.00
2007,10,03,08,29,51.00
2007,10,03,08,30,49.10
2007,10,03,08,31,48.50
2007,10,03,08,32,46.60
2007,10,03,08,33,46.00
2007,10,03,08,34,46.00
2007,10,03,08,35,47.00
2007,10,03,08,36,46.90
2007,10,03,08,37,45.40
2007,10,03,08,38,44.00
2007,10,03,08,39,42.60
2007,10,03,08,40,42.00
2007,10,03,08,41,42.00
2007,10,03,08,42,42.00
2007,10,03,08,43,41.30
2007,10,03,08,44,40.90
2007,10,03,08,45,42.00
2007,10,03,08,46,43.80
2007,10,03,08,47,47.10
2007,10,03,08,48,49.40
2007,10,03,08,49,51.90
2007,10,03,08,50,56.40
2007,10,03,08,51,59.50
2007,10,03,08,52,62.60
2007,10,03,08,53,65.00
2007,10,03,08,54,69.20
2007,10,03,08,55,70.00
2007,10,03,08,56,73.70
2007,10,03,08,57,80.00
2007,10,03,08,58,83.20
2007,10,03,08,59,90.30
2007,10,03,09,00,95.50
2007,10,03,09,01,97.00
2007,10,03,09,02,97.00
2007,10,03,09,03,95.70
2007,10,03,09,04,93.10
2007,10,03,09,05,95.10
2007,10,03,09,06,99.80
2007,10,03,09,07,107.10
2007,10,03,09,08,115.50
2007,10,03,09,09,125.40
2007,10,03,09,10,131.70
2007,10,03,09,11,136.50
2007,10,03,09,12,131.80
2007,10,03,09,13,124.60
2007,10,03,09,14,119.10
2007,10,03,09,15,114.20
2007,10,03,09,16,111.00
2007,10,03,09,17,114.80
2007,10,03,09,18,121.60
2007,10,03,09,19,128.70
2007,10,03,09,20,132.00
2007,10,03,09,21,198.50
2007,10,03,09,22,267.00
2007,10,03,09,23,247.00
2007,10,03,09,24,128.50
2007,10,03,09,25,122.90
2007,10,03,09,26,118.90
2007,10,03,09,27,119.80
2007,10,03,09,28,120.00
2007,10,03,09,29,120.00
2007,10,03,09,30,132.00
2007,10,03,09,31,160.20
2007,10,03,09,32,167.60
2007,10,03,09,33,175.00
2007,10,03,09,34,189.90
2007,10,03,09,35,228.60
2007,10,03,09,36,301.90
2007,10,03,09,37,290.80
2007,10,03,09,38,264.00
2007,10,03,09,39,231.20
2007,10,03,09,40,176.00
2007,10,03,09,41,151.70
2007,10,03,09,42,133.10
2007,10,03,09,43,115.90
2007,10,03,09,44,103.70
2007,10,03,09,45,98.00
2007,10,03,09,46,97.10
2007,10,03,09,47,98.60
2007,10,03,09,48,100.00
2007,10,03,09,49,101.20
2007,10,03,09,50,102.00
2007,10,03,09,51,98.00
2007,10,03,09,52,97.90
2007,10,03,09,53,97.00
2007,10,03,09,54,98.40
2007,10,03,09,55,103.10
2007,10,03,09,56,109.20
2007,10,03,09,57,114.00
2007,10,03,09,58,113.60
2007,10,03,09,59,111.00
2007,10,03,10,00,111.00
2007,10,03,10,01,104.90
2007,10,03,10,02,98.20
2007,10,03,10,03,100.00
2007,10,03,10,04,102.40
2007,10,03,10,05,104.40
2007,10,03,10,06,105.90
2007,10,03,10,07,109.80
2007,10,03,10,08,111.00
2007,10,03,10,09,113.10
2007,10,03,10,10,121.60
2007,10,03,10,11,128.20
2007,10,03,10,12,128.90
2007,10,03,10,13,128.00
2007,10,03,10,14,123.60
2007,10,03,10,15,120.90
2007,10,03,10,16,120.00
2007,10,03,10,17,120.00
2007,10,03,10,18,120.60
2007,10,03,10,19,125.50
2007,10,03,10,20,132.20
2007,10,03,10,21,141.60
2007,10,03,10,22,152.00
2007,10,03,10,23,157.90
2007,10,03,10,24,161.10
2007,10,03,10,25,162.00
2007,10,03,10,26,158.20
2007,10,03,10,27,155.00
2007,10,03,10,28,155.90
2007,10,03,10,29,171.10
2007,10,03,10,30,201.00
2007,10,03,10,31,200.00
2007,10,03,10,32,206.00
2007,10,03,10,33,240.20
2007,10,03,10,34,263.20
2007,10,03,10,35,267.70
2007,10,03,10,36,264.00
2007,10,03,10,37,264.00
2007,10,03,10,38,269.00
2007,10,03,10,39,279.40
2007,10,03,10,40,354.50
2007,10,03,10,41,356.50
2007,10,03,10,42,295.60
2007,10,03,10,43,297.40
2007,10,03,10,44,353.40
2007,10,03,10,45,427.00
2007,10,03,10,46,386.10
2007,10,03,10,47,326.90
2007,10,03,10,48,371.00
2007,10,03,10,49,372.20
2007,10,03,10,50,390.50
2007,10,03,10,51,348.20
2007,10,03,10,52,285.60
2007,10,03,10,53,290.40
2007,10,03,10,54,341.50
2007,10,03,10,55,330.90
2007,10,03,10,56,292.00
2007,10,03,10,57,266.40
2007,10,03,10,58,273.90
2007,10,03,10,59,226.80
2007,10,03,11,00,170.20
2007,10,03,11,01,143.20
2007,10,03,11,02,132.90
2007,10,03,11,03,131.90
2007,10,03,11,04,142.50
2007,10,03,11,05,155.50
2007,10,03,11,06,165.40
2007,10,03,11,07,165.10
2007,10,03,11,08,154.20
2007,10,03,11,09,139.00
2007,10,03,11,10,125.60
2007,10,03,11,11,116.50
2007,10,03,11,12,109.80
2007,10,03,11,13,107.40
2007,10,03,11,14,109.90
2007,10,03,11,15,117.80
2007,10,03,11,16,127.40
2007,10,03,11,17,134.00
2007,10,03,11,18,134.00
2007,10,03,11,19,141.00
2007,10,03,11,20,132.70
2007,10,03,11,21,119.20
2007,10,03,11,22,104.10
2007,10,03,11,23,90.20
2007,10,03,11,24,79.90
2007,10,03,11,25,77.00
2007,10,03,11,26,76.20
2007,10,03,11,27,77.60
2007,10,03,11,28,79.90
2007,10,03,11,29,82.40
2007,10,03,11,30,83.00
2007,10,03,11,31,80.90
2007,10,03,11,32,78.60
2007,10,03,11,33,77.60
2007,10,03,11,34,81.10
2007,10,03,11,35,83.70
2007,10,03,11,36,87.80
2007,10,03,11,37,90.60
2007,10,03,11,38,93.10
2007,10,03,11,39,101.60
2007,10,03,11,40,106.80
2007,10,03,11,41,112.20
2007,10,03,11,42,122.50
2007,10,03,11,43,128.40
2007,10,03,11,44,135.00
2007,10,03,11,45,142.70
2007,10,03,11,46,153.00
2007,10,03,11,47,159.90
2007,10,03,11,48,166.70
2007,10,03,11,49,162.50
2007,10,03,11,50,152.80
2007,10,03,11,51,142.90
2007,10,03,11,52,137.70
2007,10,03,11,53,137.00
2007,10,03,11,54,138.60
2007,10,03,11,55,142.50
2007,10,03,11,56,147.50
2007,10,03,11,57,152.90
2007,10,03,11,58,155.60
2007,10,03,11,59,157.60
2007,10,03,12,00,162.00
2007,10,03,12,01,174.50
2007,10,03,12,02,197.20
2007,10,03,12,03,227.80
2007,10,03,12,04,284.10
2007,10,03,12,05,302.00
2007,10,03,12,06,321.50
2007,10,03,12,07,363.70
2007,10,03,12,08,340.90
2007,10,03,12,09,333.80
2007,10,03,12,10,257.90
2007,10,03,12,11,215.20
2007,10,03,12,12,207.00
2007,10,03,12,13,206.60
2007,10,03,12,14,204.80
2007,10,03,12,15,208.20
2007,10,03,12,16,212.40
2007,10,03,12,17,215.60
2007,10,03,12,18,221.10
2007,10,03,12,19,251.60
2007,10,03,12,20,309.50
2007,10,03,12,21,321.00
2007,10,03,12,22,308.20
2007,10,03,12,23,287.20
2007,10,03,12,24,260.90
2007,10,03,12,25,248.00
2007,10,03,12,26,229.40
2007,10,03,12,27,230.00
2007,10,03,12,28,283.50
2007,10,03,12,29,299.00
2007,10,03,12,30,299.00
2007,10,03,12,31,299.00
2007,10,03,12,32,407.40
2007,10,03,12,33,570.00
2007,10,03,12,34,540.80
2007,10,03,12,35,527.00
2007,10,03,12,36,584.00
2007,10,03,12,37,587.00
2007,10,03,12,38,576.20
2007,10,03,12,39,534.60
2007,10,03,12,40,465.20
2007,10,03,12,41,427.00
2007,10,03,12,42,430.90
2007,10,03,12,43,457.40
2007,10,03,12,44,424.40
2007,10,03,12,45,367.90
2007,10,03,12,46,330.50
2007,10,03,12,47,330.00
2007,10,03,12,48,496.80
2007,10,03,12,49,538.40
2007,10,03,12,50,559.00
2007,10,03,12,51,559.00
2007,10,03,12,52,566.90
2007,10,03,12,53,568.00
2007,10,03,12,54,568.00
2007,10,03,12,55,464.50
2007,10,03,12,56,220.20
2007,10,03,12,57,216.50
2007,10,03,12,58,213.80
2007,10,03,12,59,206.80
2007,10,03,13,00,222.80
2007,10,03,13,01,227.20
2007,10,03,13,02,200.50
2007,10,03,13,03,176.80
2007,10,03,13,04,189.00
2007,10,03,13,05,220.90
2007,10,03,13,06,248.00
2007,10,03,13,07,270.30
2007,10,03,13,08,299.00
2007,10,03,13,09,299.00
2007,10,03,13,10,303.70
2007,10,03,13,11,299.10
2007,10,03,13,12,319.00
2007,10,03,13,13,373.00
2007,10,03,13,14,409.50
2007,10,03,13,15,380.20
2007,10,03,13,16,336.00
2007,10,03,13,17,338.40
2007,10,03,13,18,345.50
2007,10,03,13,19,327.50
2007,10,03,13,20,338.10
2007,10,03,13,21,333.20
2007,10,03,13,22,328.40
2007,10,03,13,23,331.00
2007,10,03,13,24,347.20
2007,10,03,13,25,385.00
2007,10,03,13,26,440.60
2007,10,03,13,27,455.90
2007,10,03,13,28,471.90
2007,10,03,13,29,416.30
2007,10,03,13,30,435.10
2007,10,03,13,31,503.50
2007,10,03,13,32,543.00
2007,10,03,13,33,394.20
2007,10,03,13,34,371.30
2007,10,03,13,35,371.00
2007,10,03,13,36,371.00
2007,10,03,13,37,371.00
2007,10,03,13,38,599.00
2007,10,03,13,39,711.80
2007,10,03,13,40,704.70
2007,10,03,13,41,661.90
2007,10,03,13,42,585.20
2007,10,03,13,43,558.10
2007,10,03,13,44,541.00
2007,10,03,13,45,505.50
2007,10,03,13,46,464.70
2007,10,03,13,47,444.60
2007,10,03,13,48,443.00
2007,10,03,13,49,429.40
2007,10,03,13,50,356.20
2007,10,03,13,51,336.00
2007,10,03,13,52,361.30
2007,10,03,13,53,591.60
2007,10,03,13,54,598.00
2007,10,03,13,55,531.00
2007,10,03,13,56,498.10
2007,10,03,13,57,410.00
2007,10,03,13,58,443.50
2007,10,03,13,59,424.00
2007,10,03,14,00,356.60
2007,10,03,14,01,394.40
2007,10,03,14,02,411.00
2007,10,03,14,03,411.00
2007,10,03,14,04,419.20
2007,10,03,14,05,466.00
2007,10,03,14,06,466.00
2007,10,03,14,07,466.00
2007,10,03,14,08,466.00
2007,10,03,14,09,466.00
2007,10,03,14,10,466.00
2007,10,03,14,11,466.00
2007,10,03,14,12,624.00
2007,10,03,14,13,817.00
2007,10,03,14,14,476.40
2007,10,03,14,15,488.00
2007,10,03,14,16,550.10
2007,10,03,14,17,596.00
2007,10,03,14,18,465.50
2007,10,03,14,19,306.00
2007,10,03,14,20,576.00
2007,10,03,14,21,628.00
2007,10,03,14,22,628.00
2007,10,03,14,23,628.00
2007,10,03,14,24,460.40
2007,10,03,14,25,343.00
2007,10,03,14,26,588.20
2007,10,03,14,27,694.70
2007,10,03,14,28,687.00
2007,10,03,14,29,676.30
2007,10,03,14,30,652.80
2007,10,03,14,31,633.50
2007,10,03,14,32,628.20
2007,10,03,14,33,621.40
2007,10,03,14,34,615.80
2007,10,03,14,35,609.90
2007,10,03,14,36,601.00
2007,10,03,14,37,594.10
2007,10,03,14,38,589.60
2007,10,03,14,39,585.90
2007,10,03,14,40,577.10
2007,10,03,14,41,573.40
2007,10,03,14,42,571.00
2007,10,03,14,43,575.50
2007,10,03,14,44,582.80
2007,10,03,14,45,591.30
2007,10,03,14,46,597.90
2007,10,03,14,47,601.30
2007,10,03,14,48,598.00
2007,10,03,14,49,319.40
2007,10,03,14,50,200.00
2007,10,03,14,51,200.00
2007,10,03,14,52,335.00
2007,10,03,14,53,646.80
2007,10,03,14,54,643.00
2007,10,03,14,55,643.00
2007,10,03,14,56,643.70
2007,10,03,14,57,647.10
2007,10,03,14,58,596.50
2007,10,03,14,59,565.20
2007,10,03,15,00,577.20
2007,10,03,15,01,635.20
2007,10,03,15,02,607.00
2007,10,03,15,03,622.00
2007,10,03,15,04,433.80
2007,10,03,15,05,120.00
2007,10,03,15,06,415.20
2007,10,03,15,07,612.00
2007,10,03,15,08,584.30
2007,10,03,15,09,169.00
2007,10,03,15,10,169.00
2007,10,03,15,11,169.00
2007,10,03,15,12,475.10
2007,10,03,15,13,640.00
2007,10,03,15,14,640.00
2007,10,03,15,15,640.00
2007,10,03,15,16,435.80
2007,10,03,15,17,234.50
2007,10,03,15,18,242.70
2007,10,03,15,19,161.80
2007,10,03,15,20,112.50
2007,10,03,15,21,99.80
2007,10,03,15,22,90.60
2007,10,03,15,23,86.80
2007,10,03,15,24,86.00
2007,10,03,15,25,84.30
2007,10,03,15,26,86.00
2007,10,03,15,27,85.40
2007,10,03,15,28,82.00
2007,10,03,15,29,77.30
2007,10,03,15,30,70.20
2007,10,03,15,31,63.00
2007,10,03,15,32,59.40
2007,10,03,15,33,55.20
2007,10,03,15,34,53.50
2007,10,03,15,35,51.60
2007,10,03,15,36,49.60
2007,10,03,15,37,47.00
2007,10,03,15,38,46.80
2007,10,03,15,39,46.00
2007,10,03,15,40,44.90
2007,10,03,15,41,41.60
2007,10,03,15,42,39.10
2007,10,03,15,43,36.90
2007,10,03,15,44,35.40
2007,10,03,15,45,37.00
2007,10,03,15,46,37.00
2007,10,03,15,47,37.00
2007,10,03,15,48,35.10
2007,10,03,15,49,34.90
2007,10,03,15,50,33.00
2007,10,03,15,51,33.00
2007,10,03,15,52,33.00
2007,10,03,15,53,34.60
2007,10,03,15,54,36.90
2007,10,03,15,55,37.20
2007,10,03,15,56,39.20
2007,10,03,15,57,40.70
2007,10,03,15,58,43.00
2007,10,03,15,59,44.00
2007,10,03,16,00,46.00
2007,10,03,16,01,49.60
2007,10,03,16,02,57.40
2007,10,03,16,03,74.50
2007,10,03,16,04,96.70
2007,10,03,16,05,121.80
2007,10,03,16,06,137.00
2007,10,03,16,07,143.60
2007,10,03,16,08,140.80
2007,10,03,16,09,132.60
2007,10,03,16,10,130.00
2007,10,03,16,11,128.20
2007,10,03,16,12,128.00
2007,10,03,16,13,139.80
2007,10,03,16,14,118.60
2007,10,03,16,15,115.10
2007,10,03,16,16,131.60
2007,10,03,16,17,185.80
2007,10,03,16,18,158.90
2007,10,03,16,19,185.50
2007,10,03,16,20,213.50
2007,10,03,16,21,168.30
2007,10,03,16,22,162.00
2007,10,03,16,23,158.20
2007,10,03,16,24,158.10
2007,10,03,16,25,163.30
2007,10,03,16,26,174.90
2007,10,03,16,27,176.00
2007,10,03,16,28,176.00
2007,10,03,16,29,178.80
2007,10,03,16,30,158.20
2007,10,03,16,31,166.80
2007,10,03,16,32,214.00
2007,10,03,16,33,201.10
2007,10,03,16,34,192.80
2007,10,03,16,35,213.00
2007,10,03,16,36,263.60
2007,10,03,16,37,283.80
2007,10,03,16,38,270.70
2007,10,03,16,39,245.10
2007,10,03,16,40,215.80
2007,10,03,16,41,185.00
2007,10,03,16,42,181.40
2007,10,03,16,43,154.40
2007,10,03,16,44,142.00
2007,10,03,16,45,149.60
2007,10,03,16,46,157.40
2007,10,03,16,47,141.20
2007,10,03,16,48,131.70
2007,10,03,16,49,119.40
2007,10,03,16,50,112.40
2007,10,03,16,51,107.00
2007,10,03,16,52,110.30
2007,10,03,16,53,114.00
2007,10,03,16,54,114.00
2007,10,03,16,55,116.20
2007,10,03,16,56,114.20
2007,10,03,16,57,87.80
2007,10,03,16,58,77.40
2007,10,03,16,59,76.90
2007,10,03,17,00,76.00
2007,10,03,17,01,76.00
2007,10,03,17,02,76.00
2007,10,03,17,03,74.50
2007,10,03,17,04,72.50
2007,10,03,17,05,72.00
2007,10,03,17,06,72.00
2007,10,03,17,07,72.00
2007,10,03,17,08,72.90
2007,10,03,17,09,74.00
2007,10,03,17,10,74.00
2007,10,03,17,11,75.90
2007,10,03,17,12,77.00
2007,10,03,17,13,77.00
2007,10,03,17,14,77.00
2007,10,03,17,15,77.00
2007,10,03,17,16,77.00
2007,10,03,17,17,76.90
2007,10,03,17,18,75.50
2007,10,03,17,19,74.00
2007,10,03,17,20,72.80
2007,10,03,17,21,70.40